Regional Weather Roundup
Issued by NWS

Home | Current Version | Previous Version | Graphics & Text | Print | Product List | Glossary On
Versions: 1 2 3 4 5 6 7 8 9 10 11 12 13 14 15 16 17 18 19 20 21 22 23 24 25 26 27 28 29 30 31 32 33 34 35 36 37 38 39 40 41 42 43 44 45 46 47 48 49 50
000
ASUS43 KFSD 200002
RWRSD

WEATHER ROUNDUP FOR SOUTH DAKOTA
NATIONAL WEATHER SERVICE SIOUX FALLS SD
700 PM CDT THU APR 19 2018

NOTE: "FAIR" INDICATES FEW OR NO CLOUDS BELOW 12,000 FEET WITH NO
SIGNIFICANT WEATHER AND/OR OBSTRUCTIONS TO VISIBILITY.


SDZ001>005-009-010-012>017-200100-
NORTHWEST AND NORTH CENTRAL SOUTH DAKOTA

CITY           SKY/WX    TMP DP  RH WIND       PRES   REMARKS
BUFFALO          N/A     55  29  36 SE18G28   30.13R
FAITH            N/A     50  31  48 SE18      30.24S
MOBRIDGE       SUNNY     56  34  43 S16       30.28F
$$

SDZ012>016-024>037-041>051-057-063-072>074-200100-
SOUTHWEST AND SOUTH CENTRAL SOUTH DAKOTA

CITY           SKY/WX    TMP DP  RH WIND       PRES   REMARKS
RAPID CTY ARPT PTSUNNY   54  33  45 E22       30.16S
PIERRE         PTSUNNY   49  29  46 SE21      30.31S
CUSTER         PTSUNNY   48  25  40 SE12      30.16F
ELLSWORTH AFB  MOSUNNY   54  33  45 E22G30    30.15S
PHILIP         PTSUNNY   52  32  46 SE20G26   30.25S
PINE RIDGE     PTSUNNY   58  29  33 SE16G25   30.17S
SPEARFISH      FAIR      54  32  43 E25G32    30.14R
WINNER         FAIR      43  30  60 E14       30.31F
$$

SDZ004>011-016>023-039-040-200100-
NORTHEAST SOUTH DAKOTA

CITY           SKY/WX    TMP DP  RH WIND       PRES   REMARKS
ABERDEEN       MOSUNNY   52  35  52 S14       30.38S
WATERTOWN      SUNNY     47  29  49 S8        30.39S
BROOKINGS      SUNNY     44  26  49 S10       30.41F
SISSETON         N/A     52  31  44 SW7       30.39S
$$

SDZ017-020-022-023-036>040-048>070-200100-
SOUTHEAST SOUTH DAKOTA

CITY           SKY/WX    TMP DP  RH WIND       PRES   REMARKS
SIOUX FALLS    PTSUNNY   41  25  53 E10       30.41F
HURON          MOSUNNY   44  30  57 S8        30.39F
CHAMBERLAIN    MOSUNNY   47  28  47 SE15      30.36S
MITCHELL       MOSUNNY   41  31  67 E9        30.41S
YANKTON        SUNNY     48  37  65 E13       30.39F
$$

ABBREVIATIONS USED IN REMARKS
   TC - TEMPERATURE IN CELSIUS
  WCI - WIND CHILL INDEX
   HX - HEAT INDEX
  VSB - VISIBILITY





USA.gov is the U.S. government's official web portal to all federal, state and local government web resources and services.